Voltar ao catálogo

GORIZONT 33

AtivoComunicaçõesGEO
NORAD 26372·PAYLOAD·🇷🇺 Russia

Lançado Jun 6, 2000 de Baikonur Cosmodrome

Loading…

TLE

AtualizadoSource: Space-Track

Época: Sep 14, 2026, 00:01 UTC

1 26372U 00029A   26257.00105190  .00000084  00000-0  00000-0 0  9991
2 26372  13.9231   6.1374 0003355 237.8651 130.3128  1.00205788 96329

Acompanhe GORIZONT 33 em tempo real com AllMySat

Download on the App Store